Weather History for Clermont County, Batavia, OH

Change the Weather History Date:

Friday, January 3, 2014

  Actual Average (KLUK) Record (KLUK)
Temperature  
Mean Temperature 12 °F -  
Max Temperature 19 °F 40 °F 69 °F (2004)
Min Temperature 5 °F 26 °F 2 °F (1979)
Degree Days  
Heating Degree Days 53    
Moisture  
Dew Point 6 °F    
Average Humidity 74    
Maximum Humidity 86    
Minimum Humidity 58    
Precipitation  
Precipitation 0.00 in - - ()
Sea Level Pressure  
Sea Level Pressure 30.38 in    
Wind  
Wind Speed 4 mph (WSW)    
Max Wind Speed 8 mph    
Max Gust Speed 17 mph    
Visibility 10 miles    
Events Snow    
Averages and records for this station are not official NWS values.
T = Trace of Precipitation, MM = Missing Value Source: NWS Daily Summary

Daily Weather History Graph

Daily Weather History Graph

Search for Another Location

Airport:

Trip Planner

Search our weather history database for the weather conditions in past years. The results will help you decide how hot, cold, wet, or windy it might be!

Date:

Astronomy

Jan. 03, 2014 Rise Set
Actual Time 7:56 AM EST 5:26 PM EST
Civil Twilight 7:26 AM EST 5:56 PM EST
Nautical Twilight 6:52 AM EST 6:30 PM EST
Astronomical Twilight 6:20 AM EST 7:02 PM EST
Moon 9:22 AM EST (1/3) 8:33 PM EST (1/3)
Length of Visible Light 10h 30m
Length of Day
9h 30m
Waxing Crescent, 8% of the Moon is Illuminated
Jan 3
Waxing Crescent
Jan 7
First Quarter
Jan 15
Full
Jan 24
Last Quarter
Jan 30
New

Hourly Weather History & Observations

Time (EST) Temp. Windchill Dew Point Humidity Pressure Visibility Wind Dir Wind Speed Gust Speed Precip Events Conditions
12:16 AM 14.0 °F 3.9 °F 8.6 °F 79% 30.25 in 10.0 mi NNW 6.9 mph - N/A Snow Light Snow
12:36 AM 12.2 °F 0.7 °F 8.6 °F 85% 30.27 in 10.0 mi North 8.1 mph 17.3 mph N/A   Overcast
12:56 AM 12.2 °F 0.7 °F 6.8 °F 79% 30.28 in 10.0 mi NNW 8.1 mph - N/A   Mostly Cloudy
1:16 AM 12.2 °F 2.9 °F 6.8 °F 79% 30.29 in 10.0 mi NW 5.8 mph - N/A   Mostly Cloudy
1:36 AM 10.4 °F 2.2 °F 5.0 °F 79% 30.29 in 10.0 mi NNW 4.6 mph - N/A   Scattered Clouds
1:56 AM 10.4 °F - 5.0 °F 79% 30.30 in 10.0 mi Calm Calm - N/A   Clear
2:16 AM 10.4 °F 2.2 °F 5.0 °F 79% 30.31 in 10.0 mi NW 4.6 mph - N/A   Clear
2:36 AM 10.4 °F 4.0 °F 5.0 °F 79% 30.32 in 10.0 mi NW 3.5 mph - N/A   Clear
2:56 AM 10.4 °F 4.0 °F 5.0 °F 79% 30.33 in 10.0 mi NW 3.5 mph - N/A   Clear
3:16 AM 10.4 °F 2.2 °F 5.0 °F 79% 30.35 in 10.0 mi WNW 4.6 mph - N/A   Clear
3:36 AM 10.4 °F 0.8 °F 3.2 °F 73% 30.37 in 10.0 mi NW 5.8 mph - N/A   Clear
3:56 AM 8.6 °F 0.1 °F 3.2 °F 79% 30.36 in 10.0 mi NW 4.6 mph - N/A   Clear
4:16 AM 8.6 °F 0.1 °F 3.2 °F 79% 30.36 in 10.0 mi NNW 4.6 mph - N/A   Clear
4:36 AM 8.6 °F 0.1 °F 3.2 °F 79% 30.36 in 10.0 mi NNW 4.6 mph - N/A   Clear
4:56 AM 8.6 °F 0.1 °F 3.2 °F 79% 30.37 in 10.0 mi NNW 4.6 mph - N/A   Clear
5:16 AM 8.6 °F 2.0 °F 3.2 °F 79% 30.38 in 10.0 mi NNW 3.5 mph - N/A   Clear
5:36 AM 6.8 °F -0.1 °F 1.4 °F 79% 30.39 in 10.0 mi NW 3.5 mph - N/A   Clear
5:56 AM 6.8 °F -0.1 °F 1.4 °F 79% 30.39 in 10.0 mi NNW 3.5 mph - N/A   Clear
6:16 AM 6.8 °F -0.1 °F 1.4 °F 79% 30.40 in 10.0 mi NW 3.5 mph - N/A   Clear
6:36 AM 5.0 °F -2.1 °F 1.4 °F 85% 30.40 in 10.0 mi WNW 3.5 mph - N/A   Clear
6:56 AM 5.0 °F -4.1 °F 1.4 °F 85% 30.42 in 10.0 mi NW 4.6 mph - N/A   Clear
7:16 AM 5.0 °F -4.1 °F 1.4 °F 85% 30.43 in 10.0 mi NNW 4.6 mph - N/A   Clear
7:36 AM 5.0 °F -2.1 °F -0.4 °F 78% 30.43 in 10.0 mi NNW 3.5 mph - N/A   Clear
7:56 AM 5.0 °F - -0.4 °F 78% 30.44 in 10.0 mi Calm Calm - N/A   Clear
8:16 AM 5.0 °F - 1.4 °F 85% 30.45 in 10.0 mi Calm Calm - N/A   Clear
8:36 AM 5.0 °F - 1.4 °F 85% 30.45 in 10.0 mi Calm Calm - N/A   Clear
8:56 AM 5.0 °F - 1.4 °F 85% 30.45 in 10.0 mi Calm Calm - N/A   Clear
9:16 AM 6.8 °F - 1.4 °F 79% 30.46 in 10.0 mi Calm Calm - N/A   Clear
9:36 AM 8.6 °F - 1.4 °F 73% 30.48 in 10.0 mi Calm Calm - N/A   Clear
9:56 AM 8.6 °F - 1.4 °F 73% 30.48 in 10.0 mi Calm Calm - N/A   Clear
10:16 AM 8.6 °F - 1.4 °F 73% 30.48 in 10.0 mi Calm Calm - N/A   Clear
10:36 AM 10.4 °F - 1.4 °F 67% 30.48 in 10.0 mi Calm Calm - N/A   Clear
10:56 AM 10.4 °F - 1.4 °F 67% 30.48 in 10.0 mi Calm Calm - N/A   Clear
11:16 AM 12.2 °F - 1.4 °F 62% 30.48 in 10.0 mi Calm Calm - N/A   Clear
11:36 AM 12.2 °F - 3.2 °F 67% 30.48 in 10.0 mi Calm Calm - N/A   Clear
11:56 AM 14.0 °F 8.2 °F 3.2 °F 62% 30.48 in 10.0 mi West 3.5 mph - N/A   Clear
12:16 PM 14.0 °F 8.2 °F 3.2 °F 62% 30.47 in 10.0 mi West 3.5 mph - N/A   Clear
12:36 PM 14.0 °F - 3.2 °F 62% 30.45 in 10.0 mi Calm Calm - N/A   Clear
12:56 PM 15.8 °F - 3.2 °F 58% 30.45 in 10.0 mi Calm Calm - N/A   Clear
1:16 PM 15.8 °F - 5.0 °F 62% 30.44 in 10.0 mi Calm Calm - N/A   Clear
1:36 PM 17.6 °F - 5.0 °F 58% 30.43 in 10.0 mi Calm Calm - N/A   Clear
1:56 PM 17.6 °F - 5.0 °F 58% 30.43 in 10.0 mi Calm Calm - N/A   Clear
2:16 PM 17.6 °F - 6.8 °F 63% 30.43 in 10.0 mi Calm Calm - N/A   Clear
2:36 PM 17.6 °F 12.3 °F 6.8 °F 63% 30.42 in 10.0 mi SSW 3.5 mph - N/A   Clear
2:56 PM 19.4 °F 12.8 °F 6.8 °F 58% 30.43 in 10.0 mi SW 4.6 mph - N/A   Clear
3:16 PM 19.4 °F - 6.8 °F 58% 30.42 in 10.0 mi Calm Calm - N/A   Clear
3:36 PM 19.4 °F 14.3 °F 8.6 °F 63% 30.43 in 10.0 mi South 3.5 mph - N/A   Clear
3:56 PM 19.4 °F 11.5 °F 8.6 °F 63% 30.42 in 10.0 mi SSE 5.8 mph - N/A   Clear
4:16 PM 19.4 °F 14.3 °F 8.6 °F 63% 30.43 in 10.0 mi SSW 3.5 mph - N/A   Clear
4:36 PM 19.4 °F 12.8 °F 8.6 °F 63% 30.43 in 10.0 mi SSW 4.6 mph - N/A   Clear
4:56 PM 19.4 °F 14.3 °F 8.6 °F 63% 30.41 in 10.0 mi South 3.5 mph - N/A   Clear
5:16 PM 19.4 °F - 8.6 °F 63% 30.39 in 10.0 mi Calm Calm - N/A   Clear
5:36 PM 17.6 °F - 10.4 °F 73% 30.39 in 10.0 mi Calm Calm - N/A   Clear
5:56 PM 17.6 °F - 10.4 °F 73% 30.40 in 10.0 mi Calm Calm - N/A   Clear
6:16 PM 17.6 °F - 10.4 °F 73% 30.39 in 10.0 mi Calm Calm - N/A   Clear
6:36 PM 17.6 °F 12.3 °F 10.4 °F 73% 30.38 in 10.0 mi SSE 3.5 mph - N/A   Clear
6:56 PM 17.6 °F - 10.4 °F 73% 30.38 in 10.0 mi Calm Calm - N/A   Clear
7:16 PM 14.0 °F 6.5 °F 10.4 °F 86% 30.36 in 10.0 mi SSE 4.6 mph - N/A   Clear
7:36 PM 15.8 °F 8.6 °F 10.4 °F 79% 30.36 in 10.0 mi South 4.6 mph - N/A   Clear
7:56 PM 15.8 °F 8.6 °F 10.4 °F 79% 30.36 in 10.0 mi SSE 4.6 mph - N/A   Clear
8:16 PM 15.8 °F 8.6 °F 10.4 °F 79% 30.36 in 10.0 mi South 4.6 mph - N/A   Clear
8:36 PM 15.8 °F 10.2 °F 10.4 °F 79% 30.35 in 10.0 mi South 3.5 mph - N/A   Clear
8:56 PM 15.8 °F 10.2 °F 10.4 °F 79% 30.33 in 10.0 mi South 3.5 mph - N/A   Clear
9:17 PM 14.0 °F 6.5 °F 10.4 °F 86% 30.32 in 10.0 mi South 4.6 mph - N/A   Clear
9:36 PM 15.8 °F 8.6 °F 10.4 °F 79% 30.31 in 10.0 mi SSE 4.6 mph - N/A   Clear
9:56 PM 14.0 °F 8.2 °F 8.6 °F 79% 30.31 in 10.0 mi South 3.5 mph - N/A   Clear
10:17 PM 14.0 °F 8.2 °F 8.6 °F 79% 30.30 in 10.0 mi South 3.5 mph - N/A   Clear
10:36 PM 14.0 °F 8.2 °F 8.6 °F 79% 30.29 in 10.0 mi South 3.5 mph - N/A   Clear
10:56 PM 14.0 °F 8.2 °F 8.6 °F 79% 30.28 in 10.0 mi SSE 3.5 mph - N/A   Clear
11:17 PM 14.0 °F 6.5 °F 8.6 °F 79% 30.27 in 10.0 mi SSE 4.6 mph - N/A   Clear
11:36 PM 15.8 °F 6.1 °F 8.6 °F 73% 30.26 in 10.0 mi South 6.9 mph - N/A   Clear
11:56 PM 15.8 °F 8.6 °F 8.6 °F 73% 30.25 in 10.0 mi SSE 4.6 mph - N/A   Clear